Time,TemperatureF,DewpointF,PressureIn,WindDirection,WindDirectionDegrees,WindSpeedMPH,WindSpeedGustMPH,Humidity,HourlyPrecipIn,Conditions,Clouds,dailyrainin,SoftwareType,DateUTC
2013-08-13 00:03:00,58.8,49.4,29.93,SSE,168,0.0,0.0,71,0.00,,,0.00,Wunderground v.1.15,2013-08-13 07:03:00,
2013-08-13 00:09:00,58.6,49.6,29.93,SSE,168,0.0,0.0,72,0.00,,,0.00,Wunderground v.1.15,2013-08-13 07:09:00,
2013-08-13 00:15:00,58.3,49.3,29.93,SSE,168,0.0,0.0,72,0.00,,,0.00,Wunderground v.1.15,2013-08-13 07:15:00,
2013-08-13 00:21:00,58.0,49.4,29.93,SSE,168,0.0,0.0,73,0.00,,,0.00,Wunderground v.1.15,2013-08-13 07:21:00,
2013-08-13 00:27:00,57.8,49.2,29.93,SSE,168,0.0,0.0,73,0.00,,,0.00,Wunderground v.1.15,2013-08-13 07:27:00,
2013-08-13 00:33:00,57.6,49.0,29.93,SSE,168,0.0,0.0,73,0.00,,,0.00,Wunderground v.1.15,2013-08-13 07:33:00,
2013-08-13 00:39:00,57.4,48.8,29.93,SSE,168,0.0,0.0,73,0.00,,,0.00,Wunderground v.1.15,2013-08-13 07:39:00,
2013-08-13 00:45:00,57.2,49.0,29.93,SSE,168,0.0,0.0,74,0.00,,,0.00,Wunderground v.1.15,2013-08-13 07:45:00,
2013-08-13 00:51:00,56.9,48.7,29.94,SSE,168,0.0,0.0,74,0.00,,,0.00,Wunderground v.1.15,2013-08-13 07:51:00,
2013-08-13 00:59:00,56.6,48.4,29.94,SSE,168,0.0,0.0,74,0.00,,,0.00,Wunderground v.1.15,2013-08-13 07:59:00,
2013-08-13 01:05:00,56.4,48.2,29.94,SSE,168,0.0,0.0,74,0.00,,,0.00,Wunderground v.1.15,2013-08-13 08:05:00,
2013-08-13 01:11:00,56.2,48.4,29.94,SSE,168,0.0,0.0,75,0.00,,,0.00,Wunderground v.1.15,2013-08-13 08:11:00,
2013-08-13 01:19:00,55.9,48.1,29.94,SSE,168,0.0,0.0,75,0.00,,,0.00,Wunderground v.1.15,2013-08-13 08:19:00,
2013-08-13 01:25:00,55.6,47.8,29.94,SSE,168,0.0,0.0,75,0.00,,,0.00,Wunderground v.1.15,2013-08-13 08:25:00,
2013-08-13 01:31:00,55.4,48.0,29.94,SSE,168,0.0,0.0,76,0.00,,,0.00,Wunderground v.1.15,2013-08-13 08:31:00,
2013-08-13 01:39:00,55.1,47.7,29.94,SSE,168,0.0,0.0,76,0.00,,,0.00,Wunderground v.1.15,2013-08-13 08:39:00,
2013-08-13 01:45:00,54.9,47.8,29.94,SSE,168,0.0,0.0,77,0.00,,,0.00,Wunderground v.1.15,2013-08-13 08:45:00,
2013-08-13 01:51:00,54.8,47.7,29.94,SSE,168,0.0,0.0,77,0.00,,,0.00,Wunderground v.1.15,2013-08-13 08:51:00,
2013-08-13 01:59:00,54.5,47.4,29.94,SSE,168,0.0,0.0,77,0.00,,,0.00,Wunderground v.1.15,2013-08-13 08:59:00,
2013-08-13 02:05:00,54.3,47.2,29.94,SSE,168,0.0,0.0,77,0.00,,,0.00,Wunderground v.1.15,2013-08-13 09:05:00,
2013-08-13 02:11:00,54.1,47.4,29.94,SSE,168,0.0,0.0,78,0.00,,,0.00,Wunderground v.1.15,2013-08-13 09:11:00,
2013-08-13 02:19:00,53.9,47.2,29.94,SSE,168,0.0,0.0,78,0.00,,,0.00,Wunderground v.1.15,2013-08-13 09:19:00,
2013-08-13 02:25:00,53.7,47.3,29.94,SSE,168,0.0,0.0,79,0.00,,,0.00,Wunderground v.1.15,2013-08-13 09:25:00,
2013-08-13 02:31:00,53.5,47.1,29.94,SSE,168,0.0,0.0,79,0.00,,,0.00,Wunderground v.1.15,2013-08-13 09:31:00,
2013-08-13 02:39:00,53.2,46.9,29.94,SSE,168,0.0,0.0,79,0.00,,,0.00,Wunderground v.1.15,2013-08-13 09:39:00,
2013-08-13 02:45:00,53.0,46.7,29.94,SSE,168,0.0,0.0,79,0.00,,,0.00,Wunderground v.1.15,2013-08-13 09:45:00,
2013-08-13 02:51:00,52.8,46.8,29.94,SSE,168,0.0,0.0,80,0.00,,,0.00,Wunderground v.1.15,2013-08-13 09:51:00,
2013-08-13 02:59:00,52.7,46.7,29.94,SSE,168,0.0,0.0,80,0.00,,,0.00,Wunderground v.1.15,2013-08-13 09:59:00,
2013-08-13 03:05:00,52.6,46.6,29.94,SSE,168,0.0,0.0,80,0.00,,,0.00,Wunderground v.1.15,2013-08-13 10:05:00,
2013-08-13 03:11:00,52.5,46.5,29.94,SSE,168,0.0,0.0,80,0.00,,,0.00,Wunderground v.1.15,2013-08-13 10:11:00,
2013-08-13 03:19:00,52.4,46.4,29.94,SSE,168,0.0,0.0,80,0.00,,,0.00,Wunderground v.1.15,2013-08-13 10:19:00,
2013-08-13 03:25:00,52.3,46.3,29.94,SSE,168,0.0,0.0,80,0.00,,,0.00,Wunderground v.1.15,2013-08-13 10:25:00,
2013-08-13 03:31:00,52.1,46.4,29.94,SSE,168,0.0,0.0,81,0.00,,,0.00,Wunderground v.1.15,2013-08-13 10:31:00,
2013-08-13 03:39:00,52.1,46.4,29.94,SSE,168,0.0,0.0,81,0.00,,,0.00,Wunderground v.1.15,2013-08-13 10:39:00,
2013-08-13 03:45:00,51.9,46.3,29.94,SSE,168,0.0,0.0,81,0.00,,,0.00,Wunderground v.1.15,2013-08-13 10:45:00,
2013-08-13 03:51:00,51.8,46.5,29.94,SSE,168,0.0,0.0,82,0.00,,,0.00,Wunderground v.1.15,2013-08-13 10:51:00,
2013-08-13 03:59:00,51.7,46.4,29.94,SSE,168,0.0,0.0,82,0.00,,,0.00,Wunderground v.1.15,2013-08-13 10:59:00,
2013-08-13 04:05:00,51.7,46.4,29.94,SSE,168,0.0,0.0,82,0.00,,,0.00,Wunderground v.1.15,2013-08-13 11:05:00,
2013-08-13 04:11:00,51.5,46.2,29.94,SSE,168,0.0,0.0,82,0.00,,,0.00,Wunderground v.1.15,2013-08-13 11:11:00,
2013-08-13 04:19:00,51.4,46.4,29.94,SSE,168,0.0,0.0,83,0.00,,,0.00,Wunderground v.1.15,2013-08-13 11:19:00,
2013-08-13 04:25:00,51.4,46.4,29.94,SSE,168,0.0,0.0,83,0.00,,,0.00,Wunderground v.1.15,2013-08-13 11:25:00,
2013-08-13 04:31:00,51.3,46.6,29.94,SSE,168,0.0,0.0,84,0.00,,,0.00,Wunderground v.1.15,2013-08-13 11:31:00,
2013-08-13 04:39:00,51.3,46.6,29.94,SSE,168,0.0,0.0,84,0.00,,,0.00,Wunderground v.1.15,2013-08-13 11:39:00,
2013-08-13 04:45:00,51.2,46.5,29.94,SSE,168,0.0,0.0,84,0.00,,,0.00,Wunderground v.1.15,2013-08-13 11:45:00,
2013-08-13 04:51:00,51.2,46.5,29.94,SSE,168,0.0,0.0,84,0.00,,,0.00,Wunderground v.1.15,2013-08-13 11:51:00,
2013-08-13 04:59:00,51.4,46.7,29.94,SSE,168,0.0,0.0,84,0.00,,,0.00,Wunderground v.1.15,2013-08-13 11:59:00,
2013-08-13 05:05:00,51.5,46.8,29.94,SSE,168,0.0,0.0,84,0.00,,,0.00,Wunderground v.1.15,2013-08-13 12:05:00,
2013-08-13 05:11:00,51.6,46.9,29.94,SSE,168,0.0,0.0,84,0.00,,,0.00,Wunderground v.1.15,2013-08-13 12:11:00,
2013-08-13 05:19:00,51.8,47.1,29.94,SSE,168,0.0,0.0,84,0.00,,,0.00,Wunderground v.1.15,2013-08-13 12:19:00,
2013-08-13 05:25:00,51.9,47.2,29.94,SSE,168,0.0,0.0,84,0.00,,,0.00,Wunderground v.1.15,2013-08-13 12:25:00,
2013-08-13 05:31:00,52.0,47.3,29.94,SSE,168,0.0,0.0,84,0.00,,,0.00,Wunderground v.1.15,2013-08-13 12:31:00,
2013-08-13 05:39:00,52.2,47.5,29.94,SSE,168,0.0,0.0,84,0.00,,,0.00,Wunderground v.1.15,2013-08-13 12:39:00,
2013-08-13 05:45:00,52.4,48.0,29.94,SSE,168,0.0,0.0,85,0.00,,,0.00,Wunderground v.1.15,2013-08-13 12:45:00,
2013-08-13 05:51:00,52.5,48.1,29.94,SSE,168,0.0,0.0,85,0.00,,,0.00,Wunderground v.1.15,2013-08-13 12:51:00,
2013-08-13 05:59:00,52.6,48.2,29.94,SSE,168,0.0,0.0,85,0.00,,,0.00,Wunderground v.1.15,2013-08-13 12:59:00,
2013-08-13 06:05:00,52.6,48.2,29.94,SSE,168,0.0,0.0,85,0.00,,,0.00,Wunderground v.1.15,2013-08-13 13:05:00,
2013-08-13 06:11:00,52.6,48.2,29.94,SSE,168,0.0,0.0,85,0.00,,,0.00,Wunderground v.1.15,2013-08-13 13:11:00,
2013-08-13 06:19:00,52.7,48.3,29.94,SSE,168,0.0,0.0,85,0.00,,,0.00,Wunderground v.1.15,2013-08-13 13:19:00,
2013-08-13 06:25:00,52.8,48.4,29.94,SSE,168,0.0,0.0,85,0.00,,,0.00,Wunderground v.1.15,2013-08-13 13:25:00,
2013-08-13 06:31:00,52.9,48.5,29.94,SSE,168,0.0,0.0,85,0.00,,,0.00,Wunderground v.1.15,2013-08-13 13:31:00,
2013-08-13 06:39:00,53.0,48.6,29.94,SSE,168,0.0,0.0,85,0.00,,,0.00,Wunderground v.1.15,2013-08-13 13:39:00,
2013-08-13 06:45:00,53.0,48.6,29.94,SSE,168,0.0,0.0,85,0.00,,,0.00,Wunderground v.1.15,2013-08-13 13:45:00,
2013-08-13 06:51:00,53.0,48.6,29.94,SSE,155,0.0,0.0,85,0.00,,,0.00,Wunderground v.1.15,2013-08-13 13:51:00,
2013-08-13 06:58:00,52.7,48.3,29.94,SSE,155,0.0,0.0,85,0.00,,,0.00,Wunderground v.1.15,2013-08-13 13:58:00,
2013-08-13 07:05:00,52.5,48.1,29.95,SSE,155,0.0,0.0,85,0.00,,,0.00,Wunderground v.1.15,2013-08-13 14:05:00,
2013-08-13 07:11:00,52.4,48.0,29.95,SSE,155,0.0,0.0,85,0.00,,,0.00,Wunderground v.1.15,2013-08-13 14:11:00,
2013-08-13 07:19:00,52.5,48.1,29.95,SSE,155,0.0,0.0,85,0.00,,,0.00,Wunderground v.1.15,2013-08-13 14:19:00,
2013-08-13 07:25:00,52.6,48.2,29.95,SSE,155,0.0,0.0,85,0.00,,,0.00,Wunderground v.1.15,2013-08-13 14:25:00,
2013-08-13 07:30:00,52.7,48.3,29.95,SSE,155,0.0,0.0,85,0.00,,,0.00,Wunderground v.1.15,2013-08-13 14:30:00,
2013-08-13 07:39:00,52.8,48.4,29.95,SSE,155,0.0,0.0,85,0.00,,,0.00,Wunderground v.1.15,2013-08-13 14:39:00,
2013-08-13 07:45:00,53.2,48.8,29.95,SSE,155,0.0,0.0,85,0.00,,,0.00,Wunderground v.1.15,2013-08-13 14:45:00,
2013-08-13 07:51:00,53.6,48.9,29.95,SSE,155,0.0,0.0,84,0.00,,,0.00,Wunderground v.1.15,2013-08-13 14:51:00,
2013-08-13 07:59:00,54.1,49.1,29.95,SSE,155,0.0,0.0,83,0.00,,,0.00,Wunderground v.1.15,2013-08-13 14:59:00,
2013-08-13 08:04:00,54.6,49.5,29.96,SSE,155,0.0,0.0,83,0.00,,,0.00,Wunderground v.1.15,2013-08-13 15:04:00,
2013-08-13 08:11:00,55.2,50.1,29.96,SSE,147,0.0,0.0,83,0.00,,,0.00,Wunderground v.1.15,2013-08-13 15:11:00,
2013-08-13 08:19:00,56.8,51.7,29.96,SSE,147,0.0,0.0,83,0.00,,,0.00,Wunderground v.1.15,2013-08-13 15:19:00,
2013-08-13 08:25:00,58.6,52.8,29.96,SSE,147,0.0,0.0,81,0.00,,,0.00,Wunderground v.1.15,2013-08-13 15:25:00,
2013-08-13 08:31:00,60.1,52.5,29.96,North,355,0.0,0.0,76,0.00,,,0.00,Wunderground v.1.15,2013-08-13 15:31:00,
2013-08-13 08:37:00,61.4,52.7,29.96,North,355,0.0,0.0,73,0.00,,,0.00,Wunderground v.1.15,2013-08-13 15:37:00,
2013-08-13 08:43:00,62.0,52.9,29.96,North,355,0.0,1.0,72,0.00,,,0.00,Wunderground v.1.15,2013-08-13 15:43:00,
2013-08-13 08:49:00,62.8,53.3,29.96,North,355,0.0,1.0,71,0.00,,,0.00,Wunderground v.1.15,2013-08-13 15:49:00,
2013-08-13 08:54:00,64.1,53.7,29.95,North,355,0.0,0.0,69,0.00,,,0.00,Wunderground v.1.15,2013-08-13 15:54:00,
2013-08-13 09:00:00,65.1,53.9,29.96,North,355,0.0,0.0,67,0.00,,,0.00,Wunderground v.1.15,2013-08-13 16:00:00,
2013-08-13 09:07:00,66.3,54.2,29.96,North,355,0.0,0.0,65,0.00,,,0.00,Wunderground v.1.15,2013-08-13 16:07:00,
2013-08-13 09:13:00,67.2,54.6,29.96,North,355,0.0,0.0,64,0.00,,,0.00,Wunderground v.1.15,2013-08-13 16:13:00,
2013-08-13 09:19:00,67.7,54.6,29.95,North,355,0.0,0.0,63,0.00,,,0.00,Wunderground v.1.15,2013-08-13 16:19:00,
2013-08-13 09:24:00,68.2,54.7,29.95,North,355,0.0,0.0,62,0.00,,,0.00,Wunderground v.1.15,2013-08-13 16:24:00,
2013-08-13 09:30:00,69.2,55.2,29.95,North,355,0.0,0.0,61,0.00,,,0.00,Wunderground v.1.15,2013-08-13 16:30:00,
2013-08-13 09:37:00,70.0,55.5,29.95,North,355,0.0,0.0,60,0.00,,,0.00,Wunderground v.1.15,2013-08-13 16:37:00,
2013-08-13 09:42:00,70.8,55.3,29.95,North,355,0.0,0.0,58,0.00,,,0.00,Wunderground v.1.15,2013-08-13 16:42:00,
2013-08-13 09:48:00,71.2,55.2,29.95,North,355,0.0,0.0,57,0.00,,,0.00,Wunderground v.1.15,2013-08-13 16:48:00,
2013-08-13 09:55:00,71.4,55.4,29.95,North,355,0.0,0.0,57,0.00,,,0.00,Wunderground v.1.15,2013-08-13 16:55:00,
2013-08-13 10:01:00,71.3,55.3,29.95,West,261,0.0,0.0,57,0.00,,,0.00,Wunderground v.1.15,2013-08-13 17:01:00,
2013-08-13 10:07:00,71.7,55.7,29.95,West,278,0.0,0.0,57,0.00,,,0.00,Wunderground v.1.15,2013-08-13 17:07:00,
2013-08-13 10:12:00,73.0,56.9,29.95,NW,304,0.0,0.0,57,0.00,,,0.00,Wunderground v.1.15,2013-08-13 17:12:00,
2013-08-13 10:18:00,74.7,57.5,29.95,NNW,339,0.0,0.0,55,0.00,,,0.00,Wunderground v.1.15,2013-08-13 17:18:00,
2013-08-13 10:24:00,75.7,57.4,29.95,NNW,329,0.0,0.0,53,0.00,,,0.00,Wunderground v.1.15,2013-08-13 17:24:00,
2013-08-13 10:31:00,76.4,56.4,29.95,NNW,328,0.0,0.0,50,0.00,,,0.00,Wunderground v.1.15,2013-08-13 17:31:00,
2013-08-13 10:38:00,76.5,58.1,29.95,NW,318,0.0,0.0,53,0.00,,,0.00,Wunderground v.1.15,2013-08-13 17:38:00,
2013-08-13 10:43:00,77.8,58.8,29.95,NW,317,0.0,0.0,52,0.00,,,0.00,Wunderground v.1.15,2013-08-13 17:43:00,
2013-08-13 10:50:00,79.3,59.0,29.94,NW,317,0.0,0.0,50,0.00,,,0.00,Wunderground v.1.15,2013-08-13 17:50:00,
2013-08-13 10:56:00,79.9,58.5,29.94,NW,315,0.0,0.0,48,0.00,,,0.00,Wunderground v.1.15,2013-08-13 17:56:00,
2013-08-13 11:01:00,80.7,60.3,29.94,NW,315,0.0,0.0,50,0.00,,,0.00,Wunderground v.1.15,2013-08-13 18:01:00,
2013-08-13 11:08:00,81.2,59.1,29.94,WNW,298,0.0,1.0,47,0.00,,,0.00,Wunderground v.1.15,2013-08-13 18:08:00,
2013-08-13 11:13:00,81.7,58.9,29.94,WNW,299,0.0,0.0,46,0.00,,,0.00,Wunderground v.1.15,2013-08-13 18:13:00,
2013-08-13 11:19:00,81.5,58.7,29.93,SSW,205,0.0,1.0,46,0.00,,,0.00,Wunderground v.1.15,2013-08-13 18:19:00,
2013-08-13 11:25:00,79.9,58.5,29.93,WSW,246,0.0,0.0,48,0.00,,,0.00,Wunderground v.1.15,2013-08-13 18:25:00,
2013-08-13 11:31:00,80.5,59.6,29.93,WSW,244,0.0,0.0,49,0.00,,,0.00,Wunderground v.1.15,2013-08-13 18:31:00,
2013-08-13 11:38:00,82.0,60.4,29.93,WSW,244,0.0,0.0,48,0.00,,,0.00,Wunderground v.1.15,2013-08-13 18:38:00,
2013-08-13 11:43:00,83.3,60.4,29.93,WSW,242,0.0,0.0,46,0.00,,,0.00,Wunderground v.1.15,2013-08-13 18:43:00,
2013-08-13 11:49:00,84.1,61.1,29.92,WSW,243,0.0,0.0,46,0.00,,,0.00,Wunderground v.1.15,2013-08-13 18:49:00,
2013-08-13 11:55:00,84.9,59.9,29.92,WSW,242,0.0,1.0,43,0.00,,,0.00,Wunderground v.1.15,2013-08-13 18:55:00,
2013-08-13 12:01:00,85.2,60.2,29.92,NNW,348,0.0,0.0,43,0.00,,,0.00,Wunderground v.1.15,2013-08-13 19:01:00,
2013-08-13 12:09:00,85.2,60.8,29.92,South,185,0.0,1.0,44,0.00,,,0.00,Wunderground v.1.15,2013-08-13 19:09:00,
2013-08-13 12:15:00,85.3,60.3,29.92,SSW,213,0.0,0.0,43,0.00,,,0.00,Wunderground v.1.15,2013-08-13 19:15:00,
2013-08-13 12:21:00,85.7,61.3,29.91,SSW,212,0.0,0.0,44,0.00,,,0.00,Wunderground v.1.15,2013-08-13 19:21:00,
2013-08-13 12:28:00,86.0,60.2,29.91,SSW,212,0.0,0.0,42,0.00,,,0.00,Wunderground v.1.15,2013-08-13 19:28:00,
2013-08-13 12:34:00,85.9,59.5,29.91,SSE,165,0.0,0.0,41,0.00,,,0.00,Wunderground v.1.15,2013-08-13 19:34:00,
2013-08-13 12:39:00,85.6,60.5,29.91,WSW,253,0.0,0.0,43,0.00,,,0.00,Wunderground v.1.15,2013-08-13 19:39:00,
2013-08-13 12:45:00,85.2,59.5,29.91,WSW,241,0.0,0.0,42,0.00,,,0.00,Wunderground v.1.15,2013-08-13 19:45:00,
2013-08-13 12:51:00,84.8,60.5,29.91,SW,222,0.0,0.0,44,0.00,,,0.00,Wunderground v.1.15,2013-08-13 19:51:00,
2013-08-13 12:58:00,84.7,59.1,29.90,SW,221,0.0,0.0,42,0.00,,,0.00,Wunderground v.1.15,2013-08-13 19:58:00,
2013-08-13 13:03:00,84.6,59.0,29.90,SW,221,0.0,0.0,42,0.00,,,0.00,Wunderground v.1.15,2013-08-13 20:03:00,
2013-08-13 13:09:00,84.9,59.2,29.90,SW,221,0.0,0.0,42,0.00,,,0.00,Wunderground v.1.15,2013-08-13 20:09:00,
2013-08-13 13:15:00,85.2,59.5,29.90,SW,221,0.0,0.0,42,0.00,,,0.00,Wunderground v.1.15,2013-08-13 20:15:00,
2013-08-13 13:21:00,85.7,59.3,29.89,SW,216,0.0,1.0,41,0.00,,,0.00,Wunderground v.1.15,2013-08-13 20:21:00,
2013-08-13 13:27:00,86.2,60.4,29.89,SW,215,0.0,1.0,42,0.00,,,0.00,Wunderground v.1.15,2013-08-13 20:27:00,
2013-08-13 13:33:00,86.7,59.5,29.89,SW,215,0.0,0.0,40,0.00,,,0.00,Wunderground v.1.15,2013-08-13 20:33:00,
2013-08-13 13:39:00,87.1,59.1,29.89,SSW,207,0.0,1.0,39,0.00,,,0.00,Wunderground v.1.15,2013-08-13 20:39:00,
2013-08-13 13:45:00,87.4,60.1,29.89,SSW,205,0.0,0.0,40,0.00,,,0.00,Wunderground v.1.15,2013-08-13 20:45:00,
2013-08-13 13:51:00,87.9,59.8,29.89,SSW,205,0.0,0.0,39,0.00,,,0.00,Wunderground v.1.15,2013-08-13 20:51:00,
2013-08-13 13:57:00,88.4,58.8,29.89,SSW,205,0.0,2.0,37,0.00,,,0.00,Wunderground v.1.15,2013-08-13 20:57:00,
2013-08-13 14:03:00,88.9,60.0,29.88,SSW,204,0.0,0.0,38,0.00,,,0.00,Wunderground v.1.15,2013-08-13 21:03:00,
2013-08-13 14:09:00,89.6,59.9,29.88,SSW,200,0.0,1.0,37,0.00,,,0.00,Wunderground v.1.15,2013-08-13 21:09:00,
2013-08-13 14:15:00,90.5,59.1,29.88,SSW,200,0.0,0.0,35,0.00,,,0.00,Wunderground v.1.15,2013-08-13 21:15:00,
2013-08-13 14:21:00,91.7,59.3,29.88,SSW,200,0.0,0.0,34,0.00,,,0.00,Wunderground v.1.15,2013-08-13 21:21:00,
2013-08-13 14:28:00,93.1,60.6,29.87,SSW,197,0.0,1.0,34,0.00,,,0.00,Wunderground v.1.15,2013-08-13 21:28:00,
2013-08-13 14:33:00,94.4,59.1,29.87,SSW,193,0.0,0.0,31,0.00,,,0.00,Wunderground v.1.15,2013-08-13 21:33:00,
2013-08-13 14:39:00,95.8,59.4,29.87,SSE,153,0.0,0.0,30,0.00,,,0.00,Wunderground v.1.15,2013-08-13 21:39:00,
2013-08-13 15:01:00,98.8,61.0,29.86,South,169,0.0,0.0,29,0.00,,,0.00,Wunderground v.1.15,2013-08-13 22:01:00,
2013-08-13 15:07:00,99.4,60.5,29.86,South,169,0.0,0.0,28,0.00,,,0.00,Wunderground v.1.15,2013-08-13 22:07:00,
2013-08-13 15:13:00,99.8,59.9,29.85,South,169,0.0,0.0,27,0.00,,,0.00,Wunderground v.1.15,2013-08-13 22:13:00,
2013-08-13 15:19:00,99.5,60.6,29.85,SSE,167,0.0,2.0,28,0.00,,,0.00,Wunderground v.1.15,2013-08-13 22:19:00,
2013-08-13 15:25:00,99.3,59.4,29.85,ESE,118,0.0,0.0,27,0.00,,,0.00,Wunderground v.1.15,2013-08-13 22:25:00,
2013-08-13 15:31:00,99.4,61.5,29.85,SE,142,0.0,0.0,29,0.00,,,0.00,Wunderground v.1.15,2013-08-13 22:31:00,
2013-08-13 15:38:00,99.7,59.8,29.85,SW,229,0.0,2.0,27,0.00,,,0.00,Wunderground v.1.15,2013-08-13 22:38:00,
2013-08-13 15:43:00,99.1,61.3,29.85,SW,226,0.0,1.0,29,0.00,,,0.00,Wunderground v.1.15,2013-08-13 22:43:00,
2013-08-13 15:49:00,98.3,61.5,29.85,SW,226,0.0,1.0,30,0.00,,,0.00,Wunderground v.1.15,2013-08-13 22:49:00,
2013-08-13 15:55:00,97.4,60.8,29.85,SW,231,0.0,1.0,30,0.00,,,0.00,Wunderground v.1.15,2013-08-13 22:55:00,
2013-08-13 16:01:00,96.7,60.2,29.84,WSW,250,0.0,0.0,30,0.00,,,0.00,Wunderground v.1.15,2013-08-13 23:01:00,
2013-08-13 16:07:00,95.8,59.4,29.85,SW,225,0.0,4.0,30,0.00,,,0.00,Wunderground v.1.15,2013-08-13 23:07:00,
2013-08-13 16:13:00,94.9,58.6,29.85,SSE,168,0.0,0.0,30,0.00,,,0.00,Wunderground v.1.15,2013-08-13 23:13:00,
2013-08-13 16:19:00,94.0,58.8,29.85,SW,218,0.0,0.0,31,0.00,,,0.00,Wunderground v.1.15,2013-08-13 23:19:00,
2013-08-13 16:25:00,93.3,56.3,29.85,NNW,327,1.0,1.0,29,0.00,,,0.00,Wunderground v.1.15,2013-08-13 23:25:00,
2013-08-13 16:31:00,92.8,55.9,29.85,SSW,196,1.0,1.0,29,0.00,,,0.00,Wunderground v.1.15,2013-08-13 23:31:00,
2013-08-13 16:37:00,92.3,56.4,29.84,South,190,0.0,1.0,30,0.00,,,0.00,Wunderground v.1.15,2013-08-13 23:37:00,
2013-08-13 16:43:00,91.8,54.1,29.84,South,190,0.0,0.0,28,0.00,,,0.00,Wunderground v.1.15,2013-08-13 23:43:00,
2013-08-13 16:49:00,91.6,53.9,29.85,South,178,0.0,1.0,28,0.00,,,0.00,Wunderground v.1.15,2013-08-13 23:49:00,
2013-08-13 16:55:00,91.4,52.7,29.85,South,188,1.0,3.0,27,0.00,,,0.00,Wunderground v.1.15,2013-08-13 23:55:00,
2013-08-13 17:01:00,91.3,52.6,29.84,SSW,212,1.0,1.0,27,0.00,,,0.00,Wunderground v.1.15,2013-08-14 00:01:00,
2013-08-13 17:07:00,91.4,52.7,29.84,SSW,211,1.0,1.0,27,0.00,,,0.00,Wunderground v.1.15,2013-08-14 00:07:00,
2013-08-13 17:13:00,91.6,53.9,29.84,SSE,166,0.0,1.0,28,0.00,,,0.00,Wunderground v.1.15,2013-08-14 00:13:00,
2013-08-13 17:19:00,91.8,53.1,29.84,SSW,205,1.0,2.0,27,0.00,,,0.00,Wunderground v.1.15,2013-08-14 00:19:00,
2013-08-13 17:25:00,92.1,52.3,29.84,SSW,207,1.0,3.0,26,0.00,,,0.00,Wunderground v.1.15,2013-08-14 00:25:00,
2013-08-13 17:31:00,91.8,52.0,29.84,South,190,2.0,3.0,26,0.00,,,0.00,Wunderground v.1.15,2013-08-14 00:31:00,
2013-08-13 17:37:00,90.9,52.3,29.84,SW,232,2.0,3.0,27,0.00,,,0.00,Wunderground v.1.15,2013-08-14 00:37:00,
2013-08-13 17:43:00,90.5,52.0,29.84,SSW,201,1.0,2.0,27,0.00,,,0.00,Wunderground v.1.15,2013-08-14 00:43:00,
2013-08-13 17:49:00,90.2,51.7,29.84,SW,234,2.0,2.0,27,0.00,,,0.00,Wunderground v.1.15,2013-08-14 00:49:00,
2013-08-13 17:55:00,89.8,52.3,29.84,SSW,207,1.0,1.0,28,0.00,,,0.00,Wunderground v.1.15,2013-08-14 00:55:00,
2013-08-13 18:01:00,89.4,52.0,29.84,SSW,213,1.0,1.0,28,0.00,,,0.00,Wunderground v.1.15,2013-08-14 01:01:00,
2013-08-13 18:07:00,89.0,51.7,29.84,South,183,1.0,1.0,28,0.00,,,0.00,Wunderground v.1.15,2013-08-14 01:07:00,
2013-08-13 18:13:00,88.7,51.4,29.84,SW,236,1.0,1.0,28,0.00,,,0.00,Wunderground v.1.15,2013-08-14 01:13:00,
2013-08-13 19:07:00,86.6,51.5,29.83,SW,217,0.0,0.0,30,0.00,,,0.00,Wunderground v.1.15,2013-08-14 02:07:00,
2013-08-13 19:13:00,86.3,52.1,29.83,SSW,205,0.0,0.0,31,0.00,,,0.00,Wunderground v.1.15,2013-08-14 02:13:00,
2013-08-13 19:19:00,86.0,51.8,29.83,SSW,205,0.0,0.0,31,0.00,,,0.00,Wunderground v.1.15,2013-08-14 02:19:00,
2013-08-13 19:25:00,85.5,52.3,29.83,SSW,205,0.0,0.0,32,0.00,,,0.00,Wunderground v.1.15,2013-08-14 02:25:00,
2013-08-13 19:31:00,85.1,51.9,29.84,SSW,205,0.0,0.0,32,0.00,,,0.00,Wunderground v.1.15,2013-08-14 02:31:00,
2013-08-13 19:37:00,84.5,52.2,29.84,SSW,205,0.0,1.0,33,0.00,,,0.00,Wunderground v.1.15,2013-08-14 02:37:00,
2013-08-13 19:45:00,84.0,51.0,29.84,SSW,205,0.0,0.0,32,0.00,,,0.00,Wunderground v.1.15,2013-08-14 02:45:00,
2013-08-13 19:51:00,83.6,52.3,29.84,SSW,205,0.0,0.0,34,0.00,,,0.00,Wunderground v.1.15,2013-08-14 02:51:00,
2013-08-13 19:57:00,83.1,52.6,29.84,SSW,205,0.0,0.0,35,0.00,,,0.00,Wunderground v.1.15,2013-08-14 02:57:00,
2013-08-13 20:03:00,82.4,52.8,29.84,SSW,205,0.0,0.0,36,0.00,,,0.00,Wunderground v.1.15,2013-08-14 03:03:00,
2013-08-13 20:09:00,81.5,52.7,29.84,SSW,205,0.0,0.0,37,0.00,,,0.00,Wunderground v.1.15,2013-08-14 03:09:00,
2013-08-13 21:09:00,75.5,55.6,29.87,SSW,205,0.0,0.0,50,0.00,,,0.00,Wunderground v.1.15,2013-08-14 04:09:00,
2013-08-13 21:11:00,75.3,55.9,29.87,SSW,205,0.0,0.0,51,0.00,,,0.00,Wunderground v.1.15,2013-08-14 04:11:00,
2013-08-13 21:17:00,74.8,56.0,29.87,SSW,205,0.0,0.0,52,0.00,,,0.00,Wunderground v.1.15,2013-08-14 04:17:00,
2013-08-13 21:19:00,74.6,55.8,29.87,SSW,205,0.0,0.0,52,0.00,,,0.00,Wunderground v.1.15,2013-08-14 04:19:00,
2013-08-13 21:35:00,73.2,56.1,29.88,SSW,205,0.0,0.0,55,0.00,,,0.00,Wunderground v.1.15,2013-08-14 04:35:00,
2013-08-13 21:41:00,72.6,56.0,29.88,SSW,205,0.0,0.0,56,0.00,,,0.00,Wunderground v.1.15,2013-08-14 04:41:00,
2013-08-13 21:47:00,72.1,56.0,29.88,SSW,205,0.0,0.0,57,0.00,,,0.00,Wunderground v.1.15,2013-08-14 04:47:00,
2013-08-13 21:53:00,71.6,56.0,29.89,SSW,205,0.0,0.0,58,0.00,,,0.00,Wunderground v.1.15,2013-08-14 04:53:00,
2013-08-13 22:01:00,71.1,56.0,29.89,SSW,205,0.0,0.0,59,0.00,,,0.00,Wunderground v.1.15,2013-08-14 05:01:00,
2013-08-13 22:11:00,70.5,55.9,29.89,SSW,205,0.0,0.0,60,0.00,,,0.00,Wunderground v.1.15,2013-08-14 05:11:00,
2013-08-13 22:31:00,69.1,55.5,29.89,SSW,205,0.0,0.0,62,0.00,,,0.00,Wunderground v.1.15,2013-08-14 05:31:00,
2013-08-13 22:37:00,68.6,55.5,29.89,SSW,205,0.0,0.0,63,0.00,,,0.00,Wunderground v.1.15,2013-08-14 05:37:00,
2013-08-13 22:49:00,67.7,55.5,29.90,SSW,205,0.0,0.0,65,0.00,,,0.00,Wunderground v.1.15,2013-08-14 05:49:00,
2013-08-13 22:55:00,67.3,55.5,29.90,SSW,205,0.0,0.0,66,0.00,,,0.00,Wunderground v.1.15,2013-08-14 05:55:00,
2013-08-13 23:01:00,67.0,54.4,29.90,SSW,205,0.0,0.0,64,0.00,,,0.00,Wunderground v.1.15,2013-08-14 06:01:00,
2013-08-13 23:07:00,66.7,53.7,29.90,SSW,205,0.0,0.0,63,0.00,,,0.00,Wunderground v.1.15,2013-08-14 06:07:00,
2013-08-13 23:13:00,66.5,53.9,29.90,SSW,205,0.0,0.0,64,0.00,,,0.00,Wunderground v.1.15,2013-08-14 06:13:00,
2013-08-13 23:19:00,66.2,53.7,29.90,SSW,205,0.0,0.0,64,0.00,,,0.00,Wunderground v.1.15,2013-08-14 06:19:00,
2013-08-13 23:25:00,65.8,53.3,29.90,SSW,205,0.0,0.0,64,0.00,,,0.00,Wunderground v.1.15,2013-08-14 06:25:00,
2013-08-13 23:31:00,65.4,52.9,29.90,SSW,205,0.0,0.0,64,0.00,,,0.00,Wunderground v.1.15,2013-08-14 06:31:00,
2013-08-13 23:37:00,65.0,52.9,29.90,SSW,205,0.0,0.0,65,0.00,,,0.00,Wunderground v.1.15,2013-08-14 06:37:00,
2013-08-13 23:43:00,64.6,52.6,29.90,SSW,205,0.0,0.0,65,0.00,,,0.00,Wunderground v.1.15,2013-08-14 06:43:00,
2013-08-13 23:49:00,64.1,52.1,29.90,SSW,205,0.0,0.0,65,0.00,,,0.00,Wunderground v.1.15,2013-08-14 06:49:00,
2013-08-13 23:57:00,63.5,51.9,29.90,SSW,205,0.0,0.0,66,0.00,,,0.00,Wunderground v.1.15,2013-08-14 06:57:00,